,,Stat6,,Stat2,,Stat8,,Stat9,,Stat10,,Wind1,,Wind1,
time,status,PA1M_AVG,status,PR1M_SUM,status,RH1M_AVG,status,SR1M_AVG,status,TA1M_AVG,status,W1dAve1m,status,W1sAve1m,
2007-02-01, 18:49:00,VALID,919.639,VALID,0,VALID,76.1272,VALID,864.647,VALID,23.4198,VALID,74,VALID,3.25469,
2007-02-01, 18:50:00,VALID,919.622,VALID,0,VALID,76.4082,VALID,890.05,VALID,23.4136,VALID,43,VALID,4.10156,
2007-02-01, 18:51:00,VALID,919.644,VALID,0,VALID,77.7573,VALID,476.176,VALID,23.184,VALID,61,VALID,3.14725,
2007-02-01, 18:52:00,VALID,919.618,VALID,0,VALID,79.1142,VALID,822.891,VALID,22.9776,VALID,17,VALID,2.46782,
2007-02-01, 18:53:00,VALID,919.564,VALID,0,VALID,78.8573,VALID,1019.9,VALID,22.896,VALID,63,VALID,2.20313,
2007-02-01, 18:54:00,VALID,919.537,VALID,0,VALID,79.9267,VALID,921.669,VALID,22.8543,VALID,26,VALID,1.85976,
2007-02-01, 18:55:00,VALID,919.56,VALID,0,VALID,78.7924,VALID,789.727,VALID,22.9929,VALID,32,VALID,2.55088,
2007-02-01, 18:56:00,VALID,919.543,VALID,0,VALID,78.5852,VALID,868.756,VALID,22.8476,VALID,43,VALID,4.1875,
2007-02-01, 18:57:00,VALID,919.537,VALID,0,VALID,79.5948,VALID,827.731,VALID,22.7709,VALID,69,VALID,2.41461,
2007-02-01, 18:58:00,VALID,919.525,VALID,0,VALID,79.4168,VALID,837.579,VALID,22.8869,VALID,57,VALID,2.65807,
2007-02-01, 18:59:00,VALID,919.546,VALID,0,VALID,80.0717,VALID,806.98,VALID,23.1094,VALID,23,VALID,1.55562,
2007-02-01, 19:00:00,VALID,919.554,VALID,0,VALID,77.6086,VALID,801.971,VALID,23.1867,VALID,51,VALID,2.53543,
2007-02-01, 19:01:00,VALID,919.547,VALID,0,VALID,78.7962,VALID,642.775,VALID,23.1453,VALID,66,VALID,2.14299,
2007-02-01, 19:02:00,VALID,919.508,VALID,0,VALID,77.9621,VALID,814.774,VALID,23.0807,VALID,68,VALID,3.41461,
2007-02-01, 19:03:00,VALID,919.539,VALID,0,VALID,78.9603,VALID,998.846,VALID,22.8549,VALID,62,VALID,2.68441,
2007-02-01, 19:04:00,VALID,919.503,VALID,0,VALID,78.1337,VALID,747.819,VALID,22.99,VALID,51,VALID,1.60334,
2007-02-01, 19:05:00,VALID,919.482,VALID,0,VALID,78.8013,VALID,527.56,VALID,23.0032,VALID,48,VALID,1.33739,
2007-02-01, 19:06:00,VALID,919.444,VALID,0,VALID,78.4631,VALID,483.393,VALID,22.9612,VALID,86,VALID,2.06064,
2007-02-01, 19:07:00,VALID,919.445,VALID,0,VALID,78.3397,VALID,606.216,VALID,22.8804,VALID,50,VALID,2.65244,
2007-02-01, 19:08:00,VALID,919.456,VALID,0,VALID,79.2273,VALID,786.348,VALID,22.7944,VALID,62,VALID,2.79474,
2007-02-01, 19:09:00,VALID,919.408,VALID,0,VALID,79.9407,VALID,787.724,VALID,22.7483,VALID,72,VALID,2.11932,
2007-02-01, 19:10:00,VALID,919.353,VALID,0,VALID,79.4855,VALID,837.223,VALID,22.7486,VALID,88,VALID,3.11545,
2007-02-01, 19:11:00,VALID,919.377,VALID,0,VALID,79.5999,VALID,664.273,VALID,22.8,VALID,65,VALID,3.00729,
2007-02-01, 19:12:01,VALID,919.336,VALID,0,VALID,78.9616,VALID,521.345,VALID,22.6999,VALID,40,VALID,3.47366,
2007-02-01, 19:13:00,VALID,919.355,VALID,0,VALID,80.4582,VALID,530.668,VALID,22.5021,VALID,19,VALID,2.04427,
2007-02-01, 19:14:00,VALID,919.349,VALID,0,VALID,80.4303,VALID,611.191,VALID,22.4938,VALID,83,VALID,1.77131,
2007-02-01, 19:15:00,VALID,919.355,VALID,0,VALID,80.6452,VALID,470.335,VALID,22.4967,VALID,37,VALID,2.94767,
2007-02-01, 19:16:00,VALID,919.349,VALID,0,VALID,80.9643,VALID,478.792,VALID,22.357,VALID,46,VALID,3.89151,
2007-02-01, 19:17:00,VALID,919.313,VALID,0,VALID,81.7426,VALID,388.165,VALID,22.2193,VALID,68,VALID,2.24915,
2007-02-01, 19:18:00,VALID,919.307,VALID,0,VALID,81.5607,VALID,357.48,VALID,22.1959,VALID,51,VALID,2.9041,
2007-02-01, 19:19:00,VALID,919.296,VALID,0,VALID,81.7807,VALID,421.057,VALID,22.1284,VALID,46,VALID,3.06904,
2007-02-01, 19:20:00,VALID,919.275,VALID,0,VALID,82.0516,VALID,431.755,VALID,22.0764,VALID,30,VALID,2.07068,
2007-02-01, 19:21:00,VALID,919.27,VALID,0,VALID,82.8921,VALID,419.562,VALID,22.1098,VALID,34,VALID,1.27308,
2007-02-01, 19:22:00,VALID,919.258,VALID,0,VALID,82.0973,VALID,416.947,VALID,22.2226,VALID,20,VALID,2.36074,
2007-02-01, 19:23:00,VALID,919.267,VALID,0,VALID,81.9727,VALID,501.868,VALID,22.2522,VALID,31,VALID,2.81667,
2007-02-01, 19:24:00,VALID,919.281,VALID,0,VALID,81.9409,VALID,555.698,VALID,22.2032,VALID,24,VALID,3.38654,
2007-02-01, 19:25:00,VALID,919.236,VALID,0,VALID,81.7731,VALID,610.614,VALID,22.0837,VALID,9,VALID,2.92702,
2007-02-01, 19:26:00,VALID,919.252,VALID,0,VALID,82.4674,VALID,841.196,VALID,21.9939,VALID,27,VALID,4.08866,
2007-02-01, 19:27:00,VALID,919.221,VALID,0,VALID,82.5144,VALID,568.348,VALID,21.9419,VALID,32,VALID,3.57069,
2007-02-01, 19:28:00,VALID,919.198,VALID,0,VALID,82.9213,VALID,707.048,VALID,21.9191,VALID,16,VALID,2.76246,
2007-02-01, 19:29:01,VALID,919.136,VALID,0,VALID,82.9531,VALID,923.197,VALID,22.0778,VALID,8,VALID,1.75654,
2007-02-01, 19:30:00,VALID,919.14,VALID,0,VALID,82.3822,VALID,623.519,VALID,22.4594,VALID,101,VALID,1.06324,
2007-02-01, 19:31:00,VALID,919.15,VALID,0,VALID,81.0063,VALID,465.139,VALID,22.7559,VALID,19,VALID,3.04563,
2007-02-01, 19:32:00,VALID,919.149,VALID,0,VALID,80.7151,VALID,465.563,VALID,22.8044,VALID,349,VALID,2.02035,
2007-02-01, 19:33:00,VALID,919.189,VALID,0,VALID,79.4257,VALID,477.433,VALID,22.7045,VALID,31,VALID,3.50686,
2007-02-01, 19:34:01,VALID,919.11,VALID,0,VALID,79.783,VALID,453.558,VALID,22.4494,VALID,36,VALID,2.81795,
2007-02-01, 19:35:00,VALID,919.109,VALID,0,VALID,81.6523,VALID,657.311,VALID,22.313,VALID,23,VALID,1.81287,
2007-02-01, 19:36:01,VALID,919.088,VALID,0,VALID,81.3789,VALID,512.363,VALID,22.3103,VALID,20,VALID,3.66264,
2007-02-01, 19:37:00,VALID,919.078,VALID,0,VALID,81.595,VALID,601.087,VALID,22.239,VALID,19,VALID,2.29433,
2007-02-01, 19:38:00,VALID,919.093,VALID,0,VALID,81.9549,VALID,1061.93,VALID,22.3135,VALID,342,VALID,2.85447,
2007-02-01, 19:39:00,VALID,919.093,VALID,0,VALID,81.9206,VALID,1037.02,VALID,22.4685,VALID,19,VALID,2.44355,
2007-02-01, 19:40:00,VALID,919.066,VALID,0,VALID,81.1436,VALID,884.65,VALID,22.6364,VALID,17,VALID,2.42369,
2007-02-01, 19:41:01,VALID,919.076,VALID,0,VALID,79.8758,VALID,1054.22,VALID,22.8402,VALID,349,VALID,2.78815,
2007-02-01, 19:42:01,VALID,919.081,VALID,0,VALID,79.5668,VALID,656.734,VALID,22.8986,VALID,3,VALID,2.22552,
2007-02-01, 19:43:01,VALID,919.07,VALID,0,VALID,79.0518,VALID,499.491,VALID,22.8969,VALID,63,VALID,2.79474,
2007-02-01, 19:44:00,VALID,919.048,VALID,0,VALID,79.2693,VALID,522.211,VALID,22.8455,VALID,46,VALID,2.77958,
2007-02-01, 19:45:00,VALID,919.063,VALID,0,VALID,79.5427,VALID,447.445,VALID,22.8678,VALID,51,VALID,3.28773,
2007-02-01, 19:46:00,VALID,919.057,VALID,0,VALID,78.9387,VALID,496.587,VALID,22.7457,VALID,39,VALID,4.00337,
2007-02-01, 19:47:01,VALID,918.997,VALID,0,VALID,79.5681,VALID,561.505,VALID,22.5352,VALID,63,VALID,3.1391,
2007-02-01, 19:48:00,VALID,918.977,VALID,0,VALID,80.4303,VALID,485.584,VALID,22.4903,VALID,53,VALID,2.37147,
2007-02-01, 19:49:00,VALID,918.942,VALID,0,VALID,79.9572,VALID,1008.22,VALID,22.5252,VALID,55,VALID,2.29233,
2007-02-01, 19:50:00,VALID,918.908,VALID,0,VALID,79.8886,VALID,455.681,VALID,22.7137,VALID,60,VALID,2.34654,
2007-02-01, 19:51:01,VALID,918.921,VALID,0,VALID,78.8217,VALID,804.739,VALID,22.8232,VALID,49,VALID,3.4177,
2007-02-01, 19:52:00,VALID,918.894,VALID,0,VALID,78.8891,VALID,545.883,VALID,22.8164,VALID,66,VALID,2.49943,
2007-02-01, 19:53:00,VALID,918.872,VALID,0,VALID,78.5992,VALID,647.649,VALID,22.8484,VALID,5,VALID,2.44624,
2007-02-01, 19:54:01,VALID,918.848,VALID,0,VALID,78.7352,VALID,929.921,VALID,22.9321,VALID,55,VALID,3.07758,
2007-02-01, 19:55:00,VALID,918.827,VALID,0,VALID,78.0498,VALID,621.38,VALID,23.1065,VALID,42,VALID,2.25353,
2007-02-01, 19:56:00,VALID,918.806,VALID,0,VALID,78.6157,VALID,616.659,VALID,23.3006,VALID,355,VALID,2.0766,
2007-02-01, 19:57:00,VALID,918.832,VALID,0,VALID,77.6226,VALID,735.898,VALID,23.4524,VALID,20,VALID,2.24237,
2007-02-01, 19:58:00,VALID,918.817,VALID,0,VALID,77.0363,VALID,600.018,VALID,23.5173,VALID,40,VALID,2.28795,
2007-02-01, 19:59:00,VALID,918.82,VALID,0,VALID,76.2594,VALID,589.778,VALID,23.3617,VALID,62,VALID,4.40625,
2007-02-01, 20:00:01,VALID,918.809,VALID,0,VALID,77.4878,VALID,744.949,VALID,23.1133,VALID,41,VALID,3.22961,
2007-02-01, 20:01:00,VALID,918.819,VALID,0,VALID,79.2286,VALID,537.053,VALID,23.1033,VALID,34,VALID,2.41574,
2007-02-01, 20:02:01,VALID,918.833,VALID,0,VALID,77.5844,VALID,489.71,VALID,23.13,VALID,56,VALID,2.92812,
2007-02-01, 20:03:01,VALID,918.81,VALID,0,VALID,77.3682,VALID,602.548,VALID,23.184,VALID,57,VALID,2.24507,
2007-02-01, 20:04:00,VALID,918.831,VALID,0,VALID,76.0877,VALID,588.131,VALID,23.2724,VALID,52,VALID,2.92805,
2007-02-01, 20:05:00,VALID,918.791,VALID,0,VALID,76.9918,VALID,804.144,VALID,23.2424,VALID,32,VALID,2.35647,
2007-02-01, 20:06:00,VALID,918.804,VALID,0,VALID,77.5374,VALID,986.501,VALID,23.3646,VALID,40,VALID,1.83185,
2007-02-01, 20:07:00,VALID,918.802,VALID,0,VALID,76.6943,VALID,950.264,VALID,23.5681,VALID,50,VALID,2.24833,
2007-02-01, 20:08:00,VALID,918.806,VALID,0,VALID,75.4062,VALID,921.787,VALID,23.7525,VALID,57,VALID,2.12119,
2007-02-01, 20:09:00,VALID,918.764,VALID,0,VALID,73.6755,VALID,713.059,VALID,23.7131,VALID,74,VALID,2.60764,
2007-02-01, 20:10:00,VALID,918.789,VALID,0,VALID,75.2663,VALID,495.059,VALID,23.6095,VALID,49,VALID,3.31745,
2007-02-01, 20:11:01,VALID,918.753,VALID,0,VALID,75.2408,VALID,448.786,VALID,23.5067,VALID,46,VALID,3.37682,
2007-02-01, 20:12:00,VALID,918.724,VALID,0,VALID,76.6269,VALID,622.806,VALID,23.3097,VALID,29,VALID,1.84394,
2007-02-01, 20:13:00,VALID,918.69,VALID,0,VALID,76.7324,VALID,622.229,VALID,23.4289,VALID,355,VALID,1.24219,
2007-02-01, 20:14:01,VALID,918.672,VALID,0,VALID,74.867,VALID,428.29,VALID,23.5555,VALID,43,VALID,2.49941,
2007-02-01, 20:15:01,VALID,918.654,VALID,0,VALID,75.6338,VALID,448.956,VALID,23.4163,VALID,34,VALID,1.76261,
2007-02-01, 20:16:01,VALID,918.643,VALID,0,VALID,76.515,VALID,471.999,VALID,23.3032,VALID,54,VALID,2.71532,
2007-02-01, 20:17:01,VALID,918.651,VALID,0,VALID,77.1966,VALID,678.367,VALID,23.2225,VALID,34,VALID,2.46998,
2007-02-01, 20:18:00,VALID,918.621,VALID,0,VALID,77.1851,VALID,682.341,VALID,23.1773,VALID,352,VALID,2.77269,
2007-02-01, 20:19:00,VALID,918.6,VALID,0,VALID,77.1788,VALID,860.538,VALID,23.1993,VALID,45,VALID,2.23011,
2007-02-01, 20:20:01,VALID,918.541,VALID,0,VALID,77.2156,VALID,1050.59,VALID,23.3258,VALID,22,VALID,1.90025,
2007-02-01, 20:21:00,VALID,918.516,VALID,0,VALID,76.9588,VALID,1113.45,VALID,23.5284,VALID,64,VALID,2.56498,
2007-02-01, 20:22:00,VALID,918.469,VALID,0,VALID,76.1437,VALID,955.732,VALID,23.7516,VALID,30,VALID,1.10992,
2007-02-01, 20:23:00,VALID,918.462,VALID,0,VALID,77.1241,VALID,1053.05,VALID,24.1234,VALID,322,VALID,1.18301,
2007-02-01, 20:24:00,VALID,918.467,VALID,0,VALID,74.8225,VALID,995.62,VALID,24.4752,VALID,19,VALID,2.45617,
2007-02-01, 20:25:00,VALID,918.442,VALID,0,VALID,72.8744,VALID,785.109,VALID,24.4068,VALID,64,VALID,1.82218,
2007-02-01, 20:26:01,VALID,918.434,VALID,0,VALID,74.4537,VALID,475.837,VALID,24.3945,VALID,49,VALID,1.16606,
2007-02-01, 20:27:01,VALID,918.424,VALID,0,VALID,72.9939,VALID,540.449,VALID,24.3534,VALID,105,VALID,1.80183,
2007-02-01, 20:28:00,VALID,918.437,VALID,0,VALID,74.2134,VALID,974.139,VALID,24.292,VALID,71,VALID,1.74409,
2007-02-01, 20:29:00,VALID,918.446,VALID,0,VALID,72.6048,VALID,980.915,VALID,24.5243,VALID,32,VALID,2.20004,
2007-02-01, 20:30:01,VALID,918.448,VALID,0,VALID,72.7612,VALID,995.077,VALID,24.5188,VALID,64,VALID,2.44308,
2007-02-01, 20:31:00,VALID,918.427,VALID,0,VALID,73.8077,VALID,768.79,VALID,24.492,VALID,45,VALID,2.71532,
2007-02-01, 20:32:01,VALID,918.431,VALID,0,VALID,73.8014,VALID,975.345,VALID,24.3774,VALID,55,VALID,2.83812,
2007-02-01, 20:33:00,VALID,918.434,VALID,0,VALID,73.7302,VALID,815.352,VALID,24.3095,VALID,22,VALID,3.26524,
2007-02-01, 20:34:00,VALID,918.434,VALID,0,VALID,73.5979,VALID,674.36,VALID,24.1894,VALID,359,VALID,2.40278,
2007-02-01, 20:35:01,VALID,918.42,VALID,0,VALID,73.879,VALID,506.793,VALID,23.9607,VALID,43,VALID,3.67894,
2007-02-01, 20:36:00,VALID,918.401,VALID,0,VALID,74.8238,VALID,975.583,VALID,23.7727,VALID,51,VALID,1.94382,
2007-02-01, 20:37:00,VALID,918.393,VALID,0,VALID,74.9229,VALID,832.74,VALID,23.8602,VALID,30,VALID,2.33984,
2007-02-01, 20:38:01,VALID,918.371,VALID,0,VALID,74.619,VALID,811.837,VALID,23.8693,VALID,72,VALID,1.55897,
2007-02-01, 20:39:00,VALID,918.355,VALID,0,VALID,74.3736,VALID,941.298,VALID,24.067,VALID,101,VALID,1.28506,
2007-02-01, 20:40:01,VALID,918.338,VALID,0,VALID,73.8904,VALID,878.52,VALID,24.4663,VALID,108,VALID,1.46038,
2007-02-01, 20:41:00,VALID,918.358,VALID,0,VALID,72.9125,VALID,954.526,VALID,24.5935,VALID,31,VALID,4.1449,
2007-02-01, 20:42:00,VALID,918.304,VALID,0,VALID,72.7371,VALID,970.692,VALID,24.3095,VALID,70,VALID,3.44158,
2007-02-01, 20:43:00,VALID,918.291,VALID,0,VALID,73.7302,VALID,965.53,VALID,24.2588,VALID,50,VALID,3.59417,
2007-02-01, 20:44:01,VALID,918.257,VALID,0,VALID,73.2559,VALID,864.29,VALID,24.1748,VALID,62,VALID,2.94122,
2007-02-01, 20:45:01,VALID,918.221,VALID,0,VALID,73.692,VALID,877.179,VALID,24.0963,VALID,91,VALID,2.84309,
2007-02-01, 20:46:00,VALID,918.181,VALID,0,VALID,73.5115,VALID,264.782,VALID,24.2103,VALID,68,VALID,2.5093,
2007-02-01, 20:47:01,VALID,918.199,VALID,0,VALID,74.4639,VALID,449.16,VALID,24.3463,VALID,42,VALID,1.54055,
2007-02-01, 20:48:00,VALID,918.173,VALID,0,VALID,73.7047,VALID,307.845,VALID,24.5101,VALID,33,VALID,2.96895,
2007-02-01, 20:49:00,VALID,918.173,VALID,0,VALID,73.2406,VALID,128.409,VALID,24.4268,VALID,44,VALID,3.14662,
2007-02-01, 20:50:00,VALID,918.173,VALID,0,VALID,74.2464,VALID,528.817,VALID,24.442,VALID,13,VALID,1.56641,
2007-02-01, 20:51:00,VALID,918.153,VALID,0,VALID,72.648,VALID,762.932,VALID,24.6009,VALID,57,VALID,2.05129,
2007-02-01, 20:52:00,VALID,918.116,VALID,0,VALID,72.2221,VALID,858.381,VALID,24.4811,VALID,79,VALID,2.9114,
2007-02-01, 20:53:00,VALID,918.111,VALID,0,VALID,73.2139,VALID,854.153,VALID,24.5231,VALID,41,VALID,1.5705,
2007-02-01, 20:54:00,VALID,918.1,VALID,0,VALID,72.2182,VALID,863.051,VALID,24.6388,VALID,44,VALID,3.28162,
2007-02-01, 20:55:00,VALID,918.099,VALID,0,VALID,73.0448,VALID,864.902,VALID,24.4646,VALID,54,VALID,2.98765,
2007-02-01, 20:56:00,VALID,918.089,VALID,0,VALID,73.2635,VALID,854.849,VALID,24.358,VALID,47,VALID,2.53849,
2007-02-01, 20:57:01,VALID,918.048,VALID,0,VALID,72.7892,VALID,861.421,VALID,24.2898,VALID,44,VALID,3.20039,
2007-02-01, 20:58:01,VALID,918.049,VALID,0,VALID,73.0677,VALID,867.771,VALID,24.1345,VALID,54,VALID,2.23473,
2007-02-01, 20:59:01,VALID,918.059,VALID,0,VALID,74.015,VALID,862.745,VALID,24.1865,VALID,37,VALID,3.0303,
2007-02-01, 21:00:00,VALID,918.026,VALID,0,VALID,73.0155,VALID,864.817,VALID,24.1935,VALID,42,VALID,2.58784,
2007-02-01, 21:01:01,VALID,918.004,VALID,0,VALID,74.3685,VALID,881.22,VALID,24.1806,VALID,26,VALID,1.3082,
2007-02-01, 21:02:00,VALID,917.987,VALID,0,VALID,74.2185,VALID,894.397,VALID,24.3812,VALID,13,VALID,1.97899,
2007-02-01, 21:03:01,VALID,917.96,VALID,0,VALID,73.6666,VALID,876.126,VALID,24.4681,VALID,34,VALID,2.24531,
2007-02-01, 21:04:00,VALID,917.965,VALID,0,VALID,74.6139,VALID,888.505,VALID,24.5774,VALID,20,VALID,1.99219,
2007-02-01, 21:05:01,VALID,917.964,VALID,0,VALID,73.6374,VALID,918.595,VALID,24.6358,VALID,17,VALID,2.85213,
2007-02-01, 21:06:01,VALID,917.974,VALID,0,VALID,73.1859,VALID,839.176,VALID,24.5615,VALID,43,VALID,2.98145,
2007-02-01, 21:07:01,VALID,917.937,VALID,0,VALID,72.9558,VALID,749.704,VALID,24.4634,VALID,65,VALID,2.22805,
2007-02-01, 21:08:01,VALID,917.931,VALID,0,VALID,73.35,VALID,858.805,VALID,24.5028,VALID,59,VALID,2.80167,
2007-02-01, 21:09:01,VALID,917.928,VALID,0,VALID,72.6531,VALID,750.332,VALID,24.674,VALID,31,VALID,1.71522,
2007-02-01, 21:10:01,VALID,917.92,VALID,0,VALID,72.7065,VALID,942.419,VALID,24.7121,VALID,45,VALID,2.15606,
2007-02-01, 21:11:01,VALID,917.932,VALID,0,VALID,72.5501,VALID,943.387,VALID,24.7415,VALID,51,VALID,4.11979,
2007-02-01, 21:12:00,VALID,917.891,VALID,0,VALID,72.6366,VALID,520.836,VALID,24.5271,VALID,54,VALID,3.5766,
2007-02-01, 21:13:01,VALID,917.899,VALID,0,VALID,74.0201,VALID,611.412,VALID,24.4469,VALID,65,VALID,1.69754,
2007-02-01, 21:14:01,VALID,917.919,VALID,0,VALID,74.5237,VALID,423.553,VALID,24.5338,VALID,26,VALID,1.7803,
2007-02-01, 21:15:01,VALID,917.878,VALID,0,VALID,72.7523,VALID,585.805,VALID,24.4698,VALID,31,VALID,2.92746,
2007-02-01, 21:16:01,VALID,917.879,VALID,0,VALID,74.647,VALID,618.527,VALID,24.1976,VALID,33,VALID,2.65811,
2007-02-01, 21:17:01,VALID,917.88,VALID,0,VALID,74.928,VALID,945.391,VALID,24.1101,VALID,15,VALID,3.36555,
2007-02-01, 21:18:00,VALID,917.874,VALID,0,VALID,74.9929,VALID,944.1,VALID,24.1653,VALID,24,VALID,2.08479,
2007-02-01, 21:19:01,VALID,917.871,VALID,0,VALID,75.0107,VALID,893.973,VALID,24.3982,VALID,53,VALID,1.21294,
2007-02-01, 21:20:00,VALID,917.878,VALID,0,VALID,74.1053,VALID,849.568,VALID,24.6954,VALID,354,VALID,2.46802,
2007-02-01, 21:21:01,VALID,917.866,VALID,0,VALID,73.5534,VALID,958.483,VALID,24.7406,VALID,42,VALID,2.25967,
2007-02-01, 21:22:01,VALID,917.87,VALID,0,VALID,72.6506,VALID,976.364,VALID,24.8407,VALID,49,VALID,2.38045,
2007-02-01, 21:23:00,VALID,917.872,VALID,0,VALID,73.9731,VALID,947.683,VALID,25.0058,VALID,12,VALID,1.5645,
2007-02-01, 21:24:01,VALID,917.887,VALID,0,VALID,72.2157,VALID,876.126,VALID,25.1312,VALID,15,VALID,2.21203,
2007-02-01, 21:25:01,VALID,917.864,VALID,0,VALID,72.3975,VALID,976.958,VALID,25.1018,VALID,19,VALID,2.67459,
2007-02-01, 21:26:01,VALID,917.834,VALID,0,VALID,73.2622,VALID,969.521,VALID,24.95,VALID,10,VALID,1.54818,
2007-02-01, 21:27:01,VALID,917.823,VALID,0,VALID,72.91,VALID,939.804,VALID,25.0243,VALID,329,VALID,2.37137,
2007-02-01, 21:28:01,VALID,917.841,VALID,0,VALID,73.6462,VALID,942.317,VALID,24.9732,VALID,22,VALID,2.8489,
2007-02-01, 21:29:01,VALID,917.816,VALID,0,VALID,72.7727,VALID,895.943,VALID,24.8307,VALID,360,VALID,3.31528,
2007-02-01, 21:30:00,VALID,917.81,VALID,0,VALID,74.4893,VALID,538.853,VALID,24.6689,VALID,346,VALID,1.73535,
2007-02-01, 21:31:01,VALID,917.821,VALID,0,VALID,72.84,VALID,880.592,VALID,24.601,VALID,17,VALID,2.56996,
2007-02-01, 21:32:01,VALID,917.77,VALID,0,VALID,74.2045,VALID,871.694,VALID,24.5035,VALID,339,VALID,1.94653,
2007-02-01, 21:33:01,VALID,917.77,VALID,0,VALID,74.5389,VALID,872.798,VALID,24.688,VALID,13,VALID,2.0891,
2007-02-01, 21:34:01,VALID,917.795,VALID,0,VALID,72.9202,VALID,854.034,VALID,24.9041,VALID,44,VALID,2.28753,
2007-02-01, 21:35:01,VALID,917.783,VALID,0,VALID,72.882,VALID,836.017,VALID,24.8592,VALID,15,VALID,3.12049,
2007-02-01, 21:36:01,VALID,917.76,VALID,0,VALID,73.1783,VALID,828.427,VALID,24.4748,VALID,26,VALID,3.92054,
2007-02-01, 21:37:01,VALID,917.754,VALID,0,VALID,75.4252,VALID,808.321,VALID,24.1737,VALID,38,VALID,3.45693,
2007-02-01, 21:38:01,VALID,917.721,VALID,0,VALID,74.6788,VALID,809.459,VALID,24.1902,VALID,43,VALID,2.41548,
2007-02-01, 21:39:01,VALID,917.703,VALID,0,VALID,75.1645,VALID,784.565,VALID,24.2413,VALID,19,VALID,2.0747,
2007-02-01, 21:40:01,VALID,917.696,VALID,0,VALID,75.1251,VALID,768.62,VALID,24.4189,VALID,18,VALID,2.55938,
2007-02-01, 21:41:01,VALID,917.683,VALID,0,VALID,73.8751,VALID,756.904,VALID,24.4098,VALID,35,VALID,2.73361,
2007-02-01, 21:42:01,VALID,917.68,VALID,0,VALID,74.7754,VALID,754.272,VALID,24.3352,VALID,35,VALID,2.26944,
2007-02-01, 21:43:01,VALID,917.69,VALID,0,VALID,73.9654,VALID,669.062,VALID,24.3675,VALID,5,VALID,2.20517,
2007-02-01, 21:44:01,VALID,917.734,VALID,0,VALID,74.8466,VALID,643.557,VALID,24.2797,VALID,26,VALID,2.93712,
2007-02-01, 21:45:01,VALID,917.737,VALID,0,VALID,74.5987,VALID,628.562,VALID,24.1641,VALID,30,VALID,2.51448,
2007-02-01, 21:46:01,VALID,917.771,VALID,0,VALID,75.6071,VALID,588.063,VALID,24.0349,VALID,35,VALID,3.25273,
2007-02-01, 21:47:01,VALID,917.731,VALID,0,VALID,76.9791,VALID,780.49,VALID,23.925,VALID,6,VALID,2.39676,
2007-02-01, 21:48:01,VALID,917.756,VALID,0,VALID,75.6376,VALID,784.124,VALID,23.9796,VALID,14,VALID,2.59747,
2007-02-01, 21:49:00,VALID,917.723,VALID,0,VALID,75.8016,VALID,634.387,VALID,23.9987,VALID,5,VALID,2.76116,
2007-02-01, 21:50:00,VALID,917.702,VALID,0,VALID,74.8517,VALID,696.248,VALID,23.935,VALID,359,VALID,2.84277,
2007-02-01, 21:51:00,VALID,917.68,VALID,0,VALID,76.0102,VALID,729.768,VALID,23.7894,VALID,5,VALID,2.59884,
2007-02-01, 21:52:00,VALID,917.668,VALID,0,VALID,75.574,VALID,720.887,VALID,23.7671,VALID,3,VALID,2.65868,
2007-02-01, 21:53:00,VALID,917.674,VALID,0,VALID,76.131,VALID,718.866,VALID,23.6767,VALID,352,VALID,3.58487,
2007-02-01, 21:54:00,VALID,917.68,VALID,0,VALID,76.7388,VALID,714.468,VALID,23.6538,VALID,42,VALID,1.86392,
2007-02-01, 21:55:00,VALID,917.696,VALID,0,VALID,76.3192,VALID,705.095,VALID,23.8308,VALID,31,VALID,2.49531,
2007-02-01, 21:56:00,VALID,917.662,VALID,0,VALID,75.134,VALID,697.08,VALID,23.8831,VALID,50,VALID,2.24792,
2007-02-01, 21:57:00,VALID,917.655,VALID,0,VALID,75.1137,VALID,700.323,VALID,23.9057,VALID,57,VALID,3.79632,
2007-02-01, 21:58:00,VALID,917.623,VALID,0,VALID,75.307,VALID,701.869,VALID,23.8869,VALID,28,VALID,2.56123,
2007-02-01, 21:59:00,VALID,917.584,VALID,0,VALID,76.6383,VALID,703.499,VALID,23.8992,VALID,302,VALID,3.02024,
2007-02-01, 22:00:00,VALID,917.585,VALID,0,VALID,75.4748,VALID,698.71,VALID,23.967,VALID,5,VALID,3.54055,
2007-02-01, 22:01:00,VALID,917.569,VALID,0,VALID,76.2047,VALID,695.823,VALID,23.8317,VALID,349,VALID,3.69196,
2007-02-01, 22:02:00,VALID,917.518,VALID,0,VALID,76.5544,VALID,694.108,VALID,23.7738,VALID,327,VALID,3.7513,
2007-02-01, 22:03:00,VALID,917.519,VALID,0,VALID,76.4539,VALID,684.854,VALID,23.8904,VALID,330,VALID,3.61186,
2007-02-01, 22:04:00,VALID,917.497,VALID,0,VALID,75.7813,VALID,681.186,VALID,23.9706,VALID,330,VALID,3.25444,
2007-02-01, 22:05:00,VALID,917.484,VALID,0,VALID,75.9212,VALID,679.284,VALID,23.925,VALID,39,VALID,3.5002,
2007-02-01, 22:06:00,VALID,917.487,VALID,0,VALID,76.6142,VALID,676.16,VALID,23.8352,VALID,25,VALID,3.494,
2007-02-01, 22:07:00,VALID,917.451,VALID,0,VALID,76.7006,VALID,676.601,VALID,23.7609,VALID,47,VALID,3.60866,
2007-02-01, 22:08:00,VALID,917.433,VALID,0,VALID,77.2195,VALID,673.664,VALID,23.7316,VALID,29,VALID,2.76734,
2007-02-01, 22:09:00,VALID,917.424,VALID,0,VALID,76.2772,VALID,674.988,VALID,23.7454,VALID,1,VALID,3.01254,
2007-02-01, 22:10:00,VALID,917.417,VALID,0,VALID,76.6765,VALID,666.039,VALID,23.7903,VALID,46,VALID,2.67842,
2007-02-01, 22:11:00,VALID,917.409,VALID,0,VALID,77.1584,VALID,660.3,VALID,23.9615,VALID,15,VALID,1.95908,
2007-02-01, 22:12:00,VALID,917.428,VALID,0,VALID,76.927,VALID,668.298,VALID,24.2096,VALID,19,VALID,2.12058,
2007-02-01, 22:13:00,VALID,917.44,VALID,0,VALID,75.6045,VALID,677.739,VALID,24.3452,VALID,16,VALID,2.14776,
2007-02-01, 22:14:00,VALID,917.445,VALID,0,VALID,74.6063,VALID,665.971,VALID,24.3549,VALID,62,VALID,1.82833,
2007-02-01, 22:15:00,VALID,917.449,VALID,0,VALID,74.3011,VALID,530.159,VALID,24.5264,VALID,35,VALID,0.934549,
2007-02-01, 22:16:00,VALID,917.435,VALID,0,VALID,72.9176,VALID,461.097,VALID,24.728,VALID,61,VALID,1.37432,
2007-02-01, 22:17:00,VALID,917.438,VALID,0,VALID,72.2373,VALID,433.894,VALID,24.7364,VALID,321,VALID,1.5245,
2007-02-01, 22:18:00,VALID,917.412,VALID,0,VALID,72.9621,VALID,701.495,VALID,24.7235,VALID,342,VALID,2.1788,
2007-02-01, 22:19:00,VALID,917.436,VALID,0,VALID,73.6882,VALID,728.953,VALID,24.6301,VALID,12,VALID,2.73977,
2007-02-01, 22:20:00,VALID,917.454,VALID,0,VALID,72.615,VALID,684.192,VALID,24.5261,VALID,46,VALID,3.01265,
2007-02-01, 22:21:00,VALID,917.423,VALID,0,VALID,73.4746,VALID,683.597,VALID,24.4298,VALID,26,VALID,2.30929,
2007-02-01, 22:22:00,VALID,917.406,VALID,0,VALID,73.1567,VALID,739.142,VALID,24.4298,VALID,40,VALID,2.14509,
2007-02-01, 22:23:00,VALID,917.398,VALID,0,VALID,74.0811,VALID,729.293,VALID,24.488,VALID,335,VALID,3.01344,
2007-02-01, 22:24:00,VALID,917.402,VALID,0,VALID,73.7213,VALID,707.523,VALID,24.4483,VALID,44,VALID,2.2314,
2007-02-01, 22:25:00,VALID,917.36,VALID,0,VALID,72.7116,VALID,686.943,VALID,24.5361,VALID,59,VALID,1.99695,